When you browse on this site, cookies collect data to enhance your experience and personalize the content and advertising you see.
Visit our Privacy Policy to learn more. By continuing to use the site, you agree to this use of cookies and data.
  • In Latvia
  • List of Countries
  • For 7 days
  • Water Temperature
  • Satellite Maps
  • Weather Map
  • Weather Widgets
  • user-avatar
    Login

    Hourly Weather Djelfa

    Today, 19 May, Sunday

    Time Temperature Precipitation Wind Pressure Humidity
    00:00 +10°C° 0 mm 7 mps 660 mmHg 41%
    01:00 +10°C° 0 mm 7 mps 660 mmHg 43%
    02:00 +9°C° 0 mm 6 mps 660 mmHg 45%
    03:00 +9°C° 0 mm 6 mps 660 mmHg 47%
    04:00 +9°C° 0 mm 6 mps 660 mmHg 48%
    05:00 +9°C° 0 mm 6 mps 660 mmHg 48%
    06:00 +9°C° 0 mm 6 mps 660 mmHg 49%
    07:00 +10°C° 0 mm 6 mps 660 mmHg 46%
    08:00 +11°C° 0 mm 6 mps 660 mmHg 43%
    09:00 +13°C° 0 mm 6 mps 661 mmHg 40%
    10:00 +14°C° 0 mm 6 mps 661 mmHg 39%
    11:00 +14°C° 0 mm 6 mps 661 mmHg 38%
    12:00 +15°C° 0 mm 6 mps 661 mmHg 37%
    13:00 +14°C° 0.4 mm 7 mps 661 mmHg 42%
    14:00 +12°C° 0.4 mm 7 mps 661 mmHg 48%
    15:00 +11°C° 0.4 mm 8 mps 660 mmHg 53%
    16:00 +11°C° 0.2 mm 8 mps 661 mmHg 53%
    17:00 +11°C° 0.2 mm 7 mps 661 mmHg 52%
    18:00 +13°C° 0.2 mm 6 mps 661 mmHg 51%
    19:00 +11°C° 0 mm 6 mps 661 mmHg 54%
    20:00 +12°C° 0 mm 5 mps 661 mmHg 56%
    21:00 +11°C° 0 mm 4 mps 662 mmHg 58%
    22:00 +11°C° 0 mm 4 mps 661 mmHg 61%
    23:00 +10°C° 0 mm 4 mps 661 mmHg 64%

    Tomorrow, 20 May, Monday

    Time Temperature Precipitation Wind Pressure Humidity
    00:00 +10°C° 0 mm 4 mps 661 mmHg 67%
    01:00 +10°C° 0 mm 4 mps 661 mmHg 66%
    02:00 +8°C° 0 mm 5 mps 660 mmHg 66%
    03:00 +8°C° 0 mm 5 mps 660 mmHg 65%
    04:00 +8°C° 0 mm 4 mps 661 mmHg 63%
    05:00 +9°C° 0 mm 3 mps 661 mmHg 60%
    06:00 +9°C° 0 mm 3 mps 661 mmHg 58%
    07:00 +11°C° 0 mm 3 mps 662 mmHg 48%
    08:00 +13°C° 0 mm 3 mps 663 mmHg 39%
    09:00 +16°C° 0 mm 2 mps 663 mmHg 30%
    10:00 +17°C° 0 mm 2 mps 663 mmHg 26%
    11:00 +18°C° 0 mm 2 mps 664 mmHg 22%
    12:00 +19°C° 0 mm 2 mps 664 mmHg 19%
    13:00 +20°C° 0 mm 2 mps 664 mmHg 18%
    14:00 +21°C° 0 mm 3 mps 663 mmHg 17%
    15:00 +22°C° 0 mm 3 mps 663 mmHg 16%
    16:00 +21°C° 0 mm 3 mps 663 mmHg 17%
    17:00 +21°C° 0 mm 3 mps 663 mmHg 18%
    18:00 +21°C° 0 mm 3 mps 663 mmHg 18%
    19:00 +20°C° 0 mm 3 mps 663 mmHg 20%
    20:00 +19°C° 0 mm 3 mps 664 mmHg 22%
    21:00 +19°C° 0 mm 2 mps 664 mmHg 23%
    22:00 +19°C° 0 mm 4 mps 664 mmHg 23%
    23:00 +17°C° 0 mm 5 mps 664 mmHg 23%

    Day after tomorrow, 21 May, Tuesday

    Time Temperature Precipitation Wind Pressure Humidity
    00:00 +17°C° 0 mm 6 mps 664 mmHg 22%
    01:00 +17°C° 0 mm 6 mps 664 mmHg 24%
    02:00 +16°C° 0 mm 6 mps 663 mmHg 25%
    03:00 +15°C° 0 mm 6 mps 663 mmHg 26%
    04:00 +16°C° 0 mm 5 mps 663 mmHg 27%
    05:00 +16°C° 0 mm 5 mps 663 mmHg 29%
    06:00 +16°C° 0 mm 5 mps 664 mmHg 30%
    07:00 +19°C° 0 mm 6 mps 664 mmHg 27%
    08:00 +20°C° 0 mm 6 mps 665 mmHg 24%
    09:00 +22°C° 0 mm 7 mps 665 mmHg 22%
    10:00 +23°C° 0 mm 7 mps 665 mmHg 21%
    11:00 +24°C° 0 mm 7 mps 665 mmHg 21%
    12:00 +26°C° 0 mm 8 mps 665 mmHg 20%
    13:00 +26°C° 0 mm 8 mps 665 mmHg 21%
    14:00 +26°C° 0 mm 7 mps 664 mmHg 21%
    15:00 +26°C° 0 mm 7 mps 664 mmHg 22%
    16:00 +23°C° 1.1 mm 6 mps 664 mmHg 30%
    17:00 +21°C° 1.1 mm 4 mps 663 mmHg 38%
    18:00 +19°C° 1.1 mm 2 mps 663 mmHg 46%
    19:00 +19°C° 0.4 mm 3 mps 664 mmHg 49%
    20:00 +19°C° 0.4 mm 3 mps 664 mmHg 52%
    21:00 +18°C° 0.4 mm 3 mps 665 mmHg 56%
    22:00 +18°C° 0.6 mm 2 mps 665 mmHg 58%
    23:00 +17°C° 0.6 mm 2 mps 664 mmHg 60%

    22 May, Wednesday

    Time Temperature Precipitation Wind Pressure Humidity
    00:00 +18°C° 0.6 mm 1 mps 664 mmHg 62%
    01:00 +16°C° 0.3 mm 1 mps 664 mmHg 64%
    02:00 +16°C° 0.3 mm 1 mps 664 mmHg 65%
    03:00 +16°C° 0.3 mm 1 mps 663 mmHg 67%
    04:00 +16°C° 0 mm 1 mps 664 mmHg 67%
    05:00 +16°C° 0 mm 2 mps 664 mmHg 68%
    06:00 +16°C° 0 mm 2 mps 664 mmHg 68%
    07:00 +17°C° 0 mm 3 mps 664 mmHg 62%
    08:00 +18°C° 0 mm 4 mps 665 mmHg 55%
    09:00 +19°C° 0 mm 5 mps 666 mmHg 49%
    10:00 +20°C° 0 mm 5 mps 666 mmHg 43%
    11:00 +21°C° 0 mm 4 mps 666 mmHg 38%
    12:00 +22°C° 0 mm 4 mps 666 mmHg 32%
    13:00 +23°C° 0 mm 5 mps 666 mmHg 30%
    14:00 +23°C° 0 mm 5 mps 665 mmHg 28%
    15:00 +25°C° 0 mm 5 mps 665 mmHg 27%
    16:00 +23°C° 0 mm 5 mps 665 mmHg 27%
    17:00 +23°C° 0 mm 5 mps 665 mmHg 28%
    18:00 +22°C° 0 mm 5 mps 665 mmHg 28%
    19:00 +21°C° 0 mm 5 mps 666 mmHg 32%
    20:00 +21°C° 0 mm 4 mps 666 mmHg 36%
    21:00 +20°C° 0 mm 4 mps 666 mmHg 40%
    22:00 +19°C° 0 mm 4 mps 666 mmHg 46%
    23:00 +18°C° 0 mm 3 mps 666 mmHg 53%

    23 May, Thursday

    Time Temperature Precipitation Wind Pressure Humidity
    00:00 +17°C° 0 mm 2 mps 666 mmHg 59%
    01:00 +16°C° 0 mm 2 mps 665 mmHg 61%
    02:00 +16°C° 0 mm 1 mps 665 mmHg 63%
    03:00 +15°C° 0 mm 1 mps 665 mmHg 65%
    04:00 +15°C° 0 mm 1 mps 665 mmHg 62%
    05:00 +16°C° 0 mm 1 mps 666 mmHg 59%
    06:00 +16°C° 0 mm 1 mps 666 mmHg 56%
    07:00 +19°C° 0 mm 1 mps 666 mmHg 48%
    08:00 +20°C° 0 mm 1 mps 667 mmHg 40%
    09:00 +20°C° 0 mm 2 mps 667 mmHg 31%
    10:00 +23°C° 0 mm 2 mps 667 mmHg 26%
    11:00 +24°C° 0 mm 3 mps 668 mmHg 21%
    12:00 +26°C° 0 mm 3 mps 668 mmHg 16%
    13:00 +26°C° 0 mm 3 mps 667 mmHg 15%
    14:00 +27°C° 0 mm 4 mps 667 mmHg 13%
    15:00 +28°C° 0 mm 4 mps 667 mmHg 12%
    16:00 +27°C° 0 mm 4 mps 667 mmHg 13%
    17:00 +27°C° 0 mm 4 mps 667 mmHg 14%
    18:00 +26°C° 0 mm 4 mps 666 mmHg 15%
    19:00 +25°C° 0 mm 3 mps 667 mmHg 16%
    20:00 +24°C° 0 mm 3 mps 667 mmHg 17%
    21:00 +23°C° 0 mm 2 mps 667 mmHg 18%
    22:00 +21°C° 0 mm 3 mps 666 mmHg 24%
    23:00 +21°C° 0 mm 4 mps 666 mmHg 29%

    24 May, Friday

    Time Temperature Precipitation Wind Pressure Humidity
    00:00 +20°C° 0 mm 4 mps 666 mmHg 34%
    01:00 +20°C° 0 mm 5 mps 666 mmHg 38%
    02:00 +19°C° 0 mm 5 mps 665 mmHg 42%
    03:00 +19°C° 0 mm 5 mps 665 mmHg 46%
    04:00 +19°C° 0 mm 5 mps 665 mmHg 46%
    05:00 +19°C° 0 mm 5 mps 665 mmHg 45%
    06:00 +20°C° 0 mm 5 mps 665 mmHg 45%
    07:00 +21°C° 0 mm 5 mps 666 mmHg 40%
    08:00 +23°C° 0 mm 5 mps 666 mmHg 36%
    09:00 +26°C° 0 mm 6 mps 666 mmHg 32%
    10:00 +27°C° 0 mm 5 mps 666 mmHg 27%
    11:00 +29°C° 0 mm 5 mps 666 mmHg 23%
    12:00 +30°C° 0 mm 4 mps 666 mmHg 19%
    13:00 +30°C° 0 mm 5 mps 665 mmHg 17%
    14:00 +32°C° 0 mm 6 mps 665 mmHg 14%
    15:00 +32°C° 0 mm 7 mps 664 mmHg 12%
    16:00 +30°C° 0 mm 7 mps 664 mmHg 12%
    17:00 +30°C° 0 mm 7 mps 664 mmHg 13%
    18:00 +29°C° 0 mm 7 mps 664 mmHg 13%
    19:00 +27°C° 0 mm 6 mps 664 mmHg 16%
    20:00 +26°C° 0 mm 6 mps 664 mmHg 20%
    21:00 +25°C° 0 mm 5 mps 664 mmHg 23%
    22:00 +23°C° 0 mm 5 mps 664 mmHg 27%
    23:00 +22°C° 0 mm 5 mps 663 mmHg 30%
    Show more